Location: Bednik
(45.3500°N, 16.3833°E)
Time: 04:49:16
(UTC+00:00)

Meteor 2-11 Rocket - Pass Details

Date: 08 August 2020
Orbit: 940 x 956 km, 82.5° (Epoch: 19 September)

Event Time Altitude Azimuth Distance (km) Brightness Sun altitude
Exits shadow 22:51:24 81° 250° (WSW) 959 4.3 -28.8°
Maximum altitude 22:51:34 82° 278° (W) 957 4.3 -28.8°
Drops below altitude 10° 22:57:42 10° 7° (N) 2,676 7.7 -28.9°
Sets 23:00:12 0° 9° (N) 3,627 8.7 -28.9°
